Date_and_time,latitude,longitude,wind_speed,RelWindDirFrom,WindDirFrom,air_pressure,air_temperature,relative_humidity,Temp,platform_speed_wrt_ground,air_pressure_at_mean_sea_level,platform_orientation
2019-12-10 23:50,50.63045,-96.9807666666667,7.6,13.3,293,990.14,-20.4,67,0.41,0.0,1020.27,345.5
2019-12-11 00:00,50.6304466666667,-96.9807566666667,7.7,12.5,296,990.29,-20.4,66,0.42,0.0,1020.43,23.5
2019-12-11 00:00,50.630445,-96.9807583333333,9.0,9.0,306,990.35,-20.5,65,0.42,0.0,1020.50,90.0
2019-12-11 00:10,50.630445,-96.9807766666667,6.7,10.5,299,990.46,-20.6,65,0.41,0.0,1020.62,90.0
2019-12-11 00:20,50.6304433333333,-96.9807733333333,5.9,8.8,295,990.44,-20.7,66,0.41,0.0,1020.62,90.0
2019-12-11 00:30,50.630445,-96.98077,6.2,9.4,297,990.60,-20.9,66,0.41,0.0,1020.80,90.0
2019-12-11 00:40,50.6304483333333,-96.9807716666667,5.5,8.4,302,990.77,-21.1,67,0.41,0.0,1021.00,90.0
2019-12-11 00:50,50.6304683333333,-96.9807683333333,6.2,11.2,294,990.99,-21.2,67,0.41,0.0,1021.24,90.0
2019-12-11 01:00,50.630465,-96.9807483333333,7.9,13.1,298,991.06,-21.3,65,0.41,0.0,1021.33,27.4
2019-12-11 01:10,50.6304583333333,-96.9808,9.1,13.1,302,991.12,-21.5,63,0.42,0.0,1021.42,27.4
2019-12-11 01:20,50.6304483333333,-96.980765,8.0,11.7,302,991.12,-21.6,62,0.42,0.0,1021.42,27.4
2019-12-11 01:30,50.6304466666667,-96.9807666666667,7.6,12.0,302,991.20,-21.7,61,0.42,0.0,1021.53,27.4
2019-12-11 01:40,50.6304466666667,-96.98077,6.9,12.2,296,991.37,-21.8,61,0.42,0.0,1021.71,27.4
2019-12-11 01:50,50.6304466666667,-96.98077,9.4,17.3,295,991.43,-21.9,61,0.42,0.0,1021.78,27.4
2019-12-11 02:00,50.6304466666667,-96.9807716666667,9.3,14.6,303,991.54,-22.1,61,0.42,0.0,1021.91,270.0
2019-12-11 02:10,50.6304466666667,-96.9807716666667,7.9,12.8,306,991.68,-22.3,62,0.42,0.0,1022.08,270.0
2019-12-11 02:20,50.630455,-96.9807833333333,8.9,13.7,307,991.75,-22.4,62,0.42,0.0,1022.17,270.0
2019-12-11 02:30,50.6304533333333,-96.980775,7.4,13.4,299,991.88,-22.6,62,0.42,0.0,1022.32,270.0
2019-12-11 02:40,50.630455,-96.9807716666667,6.8,11.2,297,992.02,-22.6,63,0.41,0.0,1022.47,270.0
2019-12-11 02:50,50.630455,-96.98077,7.7,12.5,296,992.01,-22.7,63,0.41,0.0,1022.48,270.0
2019-12-11 03:00,50.6304533333333,-96.98076,8.3,15.4,294,992.09,-22.8,63,0.41,0.0,1022.58,360.0
2019-12-11 03:10,50.6304483333333,-96.9807633333333,9.1,14.1,294,992.15,-22.8,62,0.41,0.0,1022.64,360.0
2019-12-11 03:20,50.6304466666667,-96.9807683333333,8.8,14.5,282,992.30,-22.7,63,0.40,0.0,1022.80,360.0
2019-12-11 03:30,50.6304233333333,-96.980745,7.9,12.1,289,992.33,-22.7,63,0.40,0.0,1022.84,360.0
2019-12-11 03:40,50.6304383333333,-96.9807583333333,7.5,11.6,290,992.31,-22.7,62,0.40,0.0,1022.82,360.0
2019-12-11 03:50,50.6304383333333,-96.98076,7.3,12.3,291,992.42,-22.5,62,0.40,0.0,1022.93,360.0
2019-12-11 04:00,50.6304566666667,-96.98076,9.3,14.5,303,992.36,-22.3,61,0.39,0.0,1022.87,360.0
2019-12-11 04:10,50.6304483333333,-96.9807566666667,10.5,15.6,306,992.47,-22.3,61,0.39,0.0,1023.00,360.0
2019-12-11 04:20,50.63042,-96.98075,9.8,15.6,307,992.72,-22.3,61,0.38,0.0,1023.26,360.0
2019-12-11 04:30,50.6304383333333,-96.9807616666667,11.0,17.7,307,992.82,-22.4,61,0.38,0.0,1023.37,360.0
2019-12-11 04:40,50.6304266666667,-96.9807633333333,9.4,15.7,309,993.09,-22.5,62,0.38,0.0,1023.66,360.0
2019-12-11 04:50,50.6304333333333,-96.9807733333333,9.4,15.7,312,993.19,-22.5,62,0.38,0.0,1023.78,360.0
2019-12-11 05:00,50.630435,-96.9807683333333,8.4,12.9,312,993.40,-22.6,62,0.38,0.0,1023.99,165.5
2019-12-11 05:10,50.6304466666667,-96.98077,7.1,11.5,311,993.62,-22.6,63,0.38,0.0,1024.21,165.5
2019-12-11 05:20,50.6304483333333,-96.9807633333333,6.5,8.9,310,993.83,-22.6,63,0.37,0.0,1024.43,165.5
2019-12-11 05:30,50.6304483333333,-96.980765,5.7,8.4,309,993.92,-22.7,63,0.37,0.0,1024.52,165.5
2019-12-11 05:40,50.63045,-96.980765,5.6,9.0,298,993.88,-22.7,63,0.37,0.0,1024.48,165.5
2019-12-11 05:50,50.63045,-96.980765,4.0,6.7,284,993.93,-22.9,64,0.37,0.0,1024.53,165.5
2019-12-11 06:00,50.630475,-96.9808216666667,3.3,5.0,273,994.10,-23.0,65,0.38,0.0,1024.71,299.3
2019-12-11 06:10,50.630455,-96.980775,4.7,7.5,285,994.21,-23.0,65,0.38,0.0,1024.83,299.3
2019-12-11 06:20,50.6304533333333,-96.9807716666667,5.2,7.7,289,994.27,-23.0,65,0.38,0.0,1024.89,299.3
2019-12-11 06:30,50.63045,-96.9807666666667,5.5,8.2,290,994.38,-23.1,65,0.38,0.0,1025.02,299.3
2019-12-11 06:40,50.6304133333333,-96.9807483333333,5.7,7.9,294,994.55,-23.0,65,0.38,0.0,1025.19,299.3
2019-12-11 06:50,50.6304416666667,-96.9807466666667,4.6,6.8,284,994.56,-23.1,66,0.37,0.0,1025.21,299.3
2019-12-11 07:00,50.630445,-96.980755,5.5,9.4,284,994.65,-23.1,66,0.37,0.0,1025.30,360.0
2019-12-11 07:10,50.6304533333333,-96.9807766666667,6.0,9.1,292,994.73,-23.0,65,0.37,0.0,1025.38,360.0
2019-12-11 07:20,50.6304533333333,-96.9807683333333,6.2,9.9,293,994.84,-23.0,64,0.37,0.0,1025.49,360.0
2019-12-11 07:30,50.6304533333333,-96.9807633333333,6.3,11.5,301,994.94,-22.9,64,0.37,0.0,1025.60,360.0
2019-12-11 07:40,50.6304516666667,-96.9807633333333,7.4,11.2,305,994.96,-22.8,63,0.37,0.0,1025.62,360.0
2019-12-11 07:50,50.6304533333333,-96.9807633333333,7.1,12.1,296,995.07,-22.8,63,0.37,0.0,1025.74,360.0
2019-12-11 08:00,50.6304533333333,-96.9807666666667,4.5,7.7,282,995.33,-22.8,64,0.36,0.0,1026.01,18.9
2019-12-11 08:10,50.6304616666667,-96.98077,4.8,7.7,277,995.43,-22.9,64,0.37,0.0,1026.12,18.9
2019-12-11 08:20,50.630455,-96.980755,5.1,8.0,284,995.41,-22.9,64,0.36,0.0,1026.10,18.9
2019-12-11 08:30,50.630455,-96.9807633333333,5.1,8.2,284,995.52,-22.9,65,0.36,0.0,1026.21,18.9
2019-12-11 08:40,50.630455,-96.9807616666667,6.0,9.7,288,995.64,-22.8,65,0.37,0.0,1026.34,18.9
2019-12-11 08:50,50.630455,-96.980765,5.8,8.2,288,995.67,-22.8,65,0.37,0.0,1026.37,18.9
2019-12-11 09:00,50.630455,-96.9807633333333,5.5,10.1,283,995.72,-22.8,65,0.37,0.0,1026.41,122.3
2019-12-11 09:10,50.630465,-96.9807783333333,4.9,7.0,277,995.85,-22.8,65,0.36,0.0,1026.54,122.3
2019-12-11 09:20,50.6304633333333,-96.9807766666667,4.8,7.7,278,995.91,-22.8,65,0.36,0.0,1026.60,122.3
2019-12-11 09:30,50.6304616666667,-96.980775,4.3,6.6,281,995.90,-22.8,65,0.36,0.0,1026.58,122.3
2019-12-11 09:40,50.63046,-96.9807733333333,4.4,6.7,276,995.93,-22.8,65,0.36,0.0,1026.62,122.3
2019-12-11 09:50,50.6304866666667,-96.9807766666667,4.8,7.8,270,995.96,-22.8,65,0.35,0.0,1026.65,122.3
2019-12-11 10:00,50.6304633333333,-96.9807683333333,4.7,7.2,266,996.01,-22.9,65,0.35,0.0,1026.71,360.0
2019-12-11 10:10,50.6304583333333,-96.98077,4.5,7.1,261,996.15,-22.9,66,0.35,0.0,1026.85,360.0
2019-12-11 10:20,50.6304566666667,-96.980765,4.4,6.0,251,996.32,-23.0,66,0.36,0.0,1027.03,360.0
2019-12-11 10:30,50.6304483333333,-96.980755,4.4,6.1,248,996.47,-23.1,66,0.36,0.0,1027.20,360.0
2019-12-11 10:40,50.6304566666667,-96.9807733333333,4.6,7.2,247,996.56,-23.2,66,0.36,0.0,1027.29,360.0
2019-12-11 10:50,50.6304733333333,-96.9807766666667,4.5,6.2,247,996.56,-23.3,66,0.35,0.0,1027.29,360.0
2019-12-11 11:00,50.6304533333333,-96.9807533333333,4.0,6.1,260,996.43,-23.2,67,0.34,0.0,1027.15,90.0
2019-12-11 11:10,50.6304483333333,-96.9807666666667,4.0,6.1,256,996.54,-23.1,67,0.38,0.0,1027.27,90.0
2019-12-11 11:20,50.63045,-96.9807683333333,3.4,5.4,249,996.56,-23.2,67,0.42,0.0,1027.29,90.0
2019-12-11 11:30,50.63046,-96.9807683333333,3.2,5.3,263,996.52,-23.1,67,0.41,0.0,1027.25,90.0
2019-12-11 11:40,50.6304516666667,-96.98076,2.8,4.5,256,996.47,-23.1,67,0.40,0.0,1027.19,90.0
2019-12-11 11:50,50.6304516666667,-96.9807583333333,2.6,4.9,251,996.49,-23.1,67,0.39,0.0,1027.22,90.0
2019-12-11 12:00,50.6304566666667,-96.980765,3.0,4.2,239,996.52,-23.3,67,0.38,0.0,1027.26,0.0
2019-12-11 12:10,50.6304533333333,-96.9807566666667,3.1,4.8,235,996.49,-23.4,68,0.37,0.0,1027.24,0.0
2019-12-11 12:20,50.63045,-96.9807583333333,3.8,5.1,228,996.66,-23.4,68,0.37,0.0,1027.43,0.0
2019-12-11 12:30,50.63045,-96.9807616666667,4.8,5.8,223,996.84,-23.5,68,0.36,0.0,1027.63,0.0
2019-12-11 12:40,50.6304483333333,-96.9807633333333,4.4,6.6,238,996.93,-23.5,68,0.36,0.0,1027.72,0.0
2019-12-11 12:50,50.63045,-96.980765,4.3,5.8,240,996.87,-23.5,68,0.35,0.0,1027.65,0.0
2019-12-11 13:00,50.63045,-96.9807666666667,4.8,6.8,236,996.86,-23.5,68,0.34,0.0,1027.64,360.0
2019-12-11 13:10,50.630435,-96.9807766666667,4.8,6.7,242,997.02,-23.5,68,0.34,0.0,1027.80,360.0
2019-12-11 13:20,50.6304433333333,-96.98077,4.0,5.4,252,997.09,-23.4,68,0.33,0.0,1027.87,360.0
2019-12-11 13:30,50.63046,-96.9807566666667,3.4,5.9,243,997.05,-23.3,67,0.33,0.0,1027.83,360.0
2019-12-11 13:40,50.6304583333333,-96.980765,3.0,4.3,240,997.08,-23.4,67,0.32,0.0,1027.86,360.0
2019-12-11 13:50,50.630455,-96.980765,3.4,5.0,236,997.24,-23.4,67,0.32,0.0,1028.04,360.0
2019-12-11 14:00,50.630455,-96.9807616666667,3.2,4.5,239,997.32,-23.3,67,0.32,0.0,1028.12,270.0
2019-12-11 14:10,50.6304533333333,-96.9807633333333,3.3,4.9,236,997.44,-23.3,67,0.31,0.0,1028.24,270.0
2019-12-11 14:20,50.6304516666667,-96.9807666666667,3.9,5.5,235,997.49,-23.3,67,0.31,0.0,1028.30,270.0
2019-12-11 14:30,50.6304516666667,-96.980765,4.4,5.9,241,997.50,-23.3,67,0.31,0.0,1028.30,270.0
2019-12-11 14:40,50.63045,-96.9807666666667,3.9,5.8,245,997.54,-23.2,66,0.31,0.0,1028.34,270.0
2019-12-11 14:50,50.63045,-96.9807666666667,4.7,6.6,241,997.81,-23.0,65,0.31,0.0,1028.61,270.0
2019-12-11 15:00,50.6304483333333,-96.9807683333333,5.5,8.0,238,998.08,-22.9,64,0.31,0.0,1028.88,142.0
2019-12-11 15:10,50.6304416666667,-96.9807633333333,5.8,8.4,238,998.13,-22.7,64,0.31,0.0,1028.91,142.0
2019-12-11 15:20,50.6304416666667,-96.9807666666667,5.5,7.7,246,998.19,-22.4,63,0.31,0.0,1028.95,142.0
2019-12-11 15:30,50.6304416666667,-96.9807683333333,5.8,8.0,250,998.31,-22.1,63,0.31,0.0,1029.06,142.0
2019-12-11 15:40,50.6304433333333,-96.9807683333333,6.0,9.4,247,998.55,-21.7,62,0.30,0.0,1029.28,142.0
2019-12-11 15:50,50.6304416666667,-96.98077,6.3,9.2,257,998.55,-21.4,61,0.30,0.0,1029.26,142.0
2019-12-11 16:00,50.6304416666667,-96.98077,6.5,9.7,254,998.50,-21.1,60,0.30,0.0,1029.19,360.0
2019-12-11 16:10,50.6304433333333,-96.9807683333333,7.7,10.4,272,998.39,-20.7,58,0.30,0.0,1029.05,360.0
2019-12-11 16:20,50.6304433333333,-96.98077,7.1,12.8,273,998.42,-20.4,58,0.30,0.0,1029.06,360.0
2019-12-11 16:30,50.6304416666667,-96.9807716666667,7.0,11.0,289,998.44,-20.3,58,0.30,0.0,1029.07,360.0
2019-12-11 16:40,50.6304416666667,-96.9807716666667,8.1,12.5,297,998.46,-20.1,57,0.30,0.0,1029.07,360.0
2019-12-11 16:50,50.630445,-96.9807833333333,7.4,11.0,289,998.58,-19.8,56,0.30,0.0,1029.17,360.0
2019-12-11 17:00,50.6304516666667,-96.9807833333333,8.0,11.2,281,998.68,-19.7,55,0.30,0.0,1029.25,270.0
2019-12-11 17:10,50.63045,-96.9807783333333,8.3,11.4,301,998.63,-19.5,55,0.30,0.0,1029.17,270.0
2019-12-11 17:20,50.6304483333333,-96.98077,6.6,9.7,294,998.61,-19.3,54,0.30,0.0,1029.11,270.0
2019-12-11 17:30,50.6304516666667,-96.98077,5.5,8.8,292,998.70,-19.0,54,0.30,0.0,1029.17,270.0
2019-12-11 17:40,50.63045,-96.98077,5.7,8.9,272,998.74,-18.7,53,0.30,0.0,1029.18,270.0
2019-12-11 17:50,50.6304483333333,-96.9807716666667,6.0,8.4,289,998.65,-18.6,53,0.30,0.0,1029.05,270.0
2019-12-11 18:00,50.63045,-96.9807716666667,5.1,8.6,259,998.65,-18.4,53,0.30,0.0,1029.02,347.4
2019-12-11 18:10,50.63045,-96.98077,5.5,8.1,250,998.62,-18.2,53,0.30,0.0,1028.96,347.4
2019-12-11 18:20,50.63045,-96.9807716666667,5.1,7.7,271,998.50,-18.0,52,0.30,0.0,1028.82,347.4
2019-12-11 18:30,50.6304533333333,-96.980785,5.5,7.5,266,998.47,-17.8,52,0.31,0.0,1028.76,347.4
2019-12-11 18:40,50.63045,-96.9807716666667,5.5,8.8,259,998.49,-17.5,51,0.31,0.0,1028.74,347.4
2019-12-11 18:50,50.6304483333333,-96.98077,4.3,7.4,264,998.46,-17.3,50,0.32,0.0,1028.70,347.4
2019-12-11 19:00,50.6304466666667,-96.98077,4.6,7.3,263,998.44,-17.0,50,0.32,0.0,1028.64,360.0
2019-12-11 19:10,50.630445,-96.9807666666667,3.2,6.7,273,998.46,-16.8,49,0.33,0.0,1028.64,360.0
2019-12-11 19:20,50.6304466666667,-96.980765,4.3,7.1,244,998.53,-16.6,49,0.34,0.0,1028.68,360.0
2019-12-11 19:30,50.630445,-96.9807666666667,4.9,7.0,248,998.57,-16.5,49,0.34,0.0,1028.70,360.0
2019-12-11 19:40,50.6304466666667,-96.9807666666667,4.8,7.7,243,998.52,-16.3,49,0.35,0.0,1028.63,360.0
2019-12-11 19:50,50.6304466666667,-96.9807666666667,4.8,7.6,253,998.42,-16.1,48,0.35,0.0,1028.51,360.0
2019-12-11 20:00,50.6304466666667,-96.9807666666667,4.0,6.5,256,998.37,-15.9,48,0.36,0.0,1028.44,113.6
2019-12-11 20:10,50.630445,-96.9807683333333,5.2,8.6,283,998.33,-15.9,48,0.36,0.0,1028.38,113.6
2019-12-11 20:20,50.630445,-96.9807683333333,4.0,7.4,260,998.37,-16.2,49,0.36,0.0,1028.43,113.6
2019-12-11 20:30,50.6304416666667,-96.9807616666667,4.5,6.7,238,998.40,-16.3,49,0.37,0.0,1028.45,113.6
2019-12-11 20:40,50.6304416666667,-96.9807683333333,4.7,6.9,231,998.48,-16.5,50,0.38,0.0,1028.52,113.6
2019-12-11 20:50,50.63044,-96.9807666666667,4.0,5.9,241,998.42,-16.7,51,0.39,0.0,1028.46,113.6
2019-12-11 21:00,50.63044,-96.9807683333333,4.0,5.7,237,998.41,-16.8,52,0.40,0.0,1028.44,165.5
2019-12-11 21:10,50.63044,-96.98077,3.4,4.9,231,998.43,-16.9,52,0.40,0.0,1028.46,165.5
2019-12-11 21:20,50.63044,-96.98077,3.3,4.5,224,998.48,-16.9,53,0.41,0.0,1028.50,165.5
2019-12-11 21:30,50.63044,-96.9807716666667,2.9,4.1,244,998.49,-16.9,53,0.42,0.0,1028.49,165.5
2019-12-11 21:40,50.63044,-96.9807716666667,1.6,3.0,237,998.51,-17.0,53,0.42,0.0,1028.52,165.5
2019-12-11 21:50,50.6304483333333,-96.9807733333333,1.9,3.7,240,998.47,-16.5,52,0.43,0.0,1028.43,165.5
2019-12-11 22:00,50.6304416666667,-96.9807816666667,4.0,5.2,222,998.59,-17.1,54,0.44,0.0,1028.59,246.4
2019-12-11 22:10,50.6304433333333,-96.9807833333333,4.5,5.8,225,998.68,-17.5,56,0.44,0.0,1028.72,246.4
2019-12-11 22:20,50.6304433333333,-96.98078,3.7,5.1,239,998.66,-17.7,56,0.44,0.0,1028.72,246.4
2019-12-11 22:30,50.6304566666667,-96.980795,3.6,4.7,229,998.71,-17.8,57,0.44,0.0,1028.79,246.4
2019-12-11 22:40,50.63044,-96.98077,3.6,5.3,232,998.77,-17.9,58,0.44,0.0,1028.87,246.4
2019-12-11 22:50,50.6304483333333,-96.9807733333333,4.0,5.4,236,998.93,-18.1,58,0.44,0.0,1029.05,246.4
2019-12-11 23:00,50.6304466666667,-96.980775,3.4,4.7,232,999.06,-18.2,59,0.45,0.0,1029.20,270.0
2019-12-11 23:10,50.630445,-96.98077,3.5,4.8,251,998.99,-18.2,58,0.45,0.0,1029.13,270.0
2019-12-11 23:20,50.6304433333333,-96.9807666666667,3.9,4.9,248,999.05,-18.2,58,0.45,0.0,1029.19,270.0
2019-12-11 23:30,50.6304416666667,-96.9807633333333,3.8,4.6,239,999.10,-18.4,59,0.46,0.0,1029.26,270.0
